Precipitable_Water
0.24 0.23 0.22 0.20 0.20 0.20 0.20 0.19 0.18 0.14 0.14 0.17 0.18 0.21 0.23 0.23 0.23 0.25 0.26 0.24 0.24 0.27 0.28 0.30 0.31 0.33 0.35 0.33 0.32 0.33 0.35 0.37 0.37 0.40 0.39 0.38 0.42 0.41
0.23 0.21 0.19 0.18 0.18 0.19 0.20 0.21 0.21 0.20 0.16 0.18 0.18 0.21 0.21 0.23 0.24 0.25 0.25 0.25 0.25 0.27 0.29 0.30 0.31 0.34 0.31 0.33 0.31 0.34 0.30 0.32 0.34 0.36 0.39 0.43 0.45 0.45
0.20 0.19 0.18 0.19 0.19 0.20 0.21 0.22 0.22 0.22 0.19 0.17 0.20 0.21 0.21 0.22 0.22 0.25 0.27 0.27 0.29 0.30 0.31 0.32 0.28 0.27 0.28 0.26 0.27 0.29 0.32 0.34 0.37 0.36 0.37 0.42 0.46 0.46
0.19 0.19 0.19 0.19 0.20 0.21 0.22 0.22 0.22 0.22 0.22 0.20 0.20 0.23 0.22 0.25 0.24 0.25 0.26 0.29 0.30 0.30 0.29 0.27 0.26 0.25 0.24 0.27 0.28 0.30 0.32 0.29 0.31 0.33 0.35 0.33 0.36 0.47
0.21 0.20 0.19 0.19 0.20 0.21 0.22 0.22 0.23 0.24 0.26 0.25 0.22 0.22 0.26 0.27 0.27 0.29 0.24 0.24 0.25 0.25 0.24 0.23 0.23 0.24 0.27 0.29 0.28 0.26 0.27 0.30 0.31 0.30 0.32 0.36 0.44 0.46
0.21 0.21 0.20 0.20 0.21 0.22 0.22 0.23 0.24 0.23 0.22 0.22 0.24 0.25 0.24 0.26 0.24 0.19 0.17 0.21 0.22 0.23 0.23 0.24 0.26 0.27 0.23 0.22 0.22 0.24 0.25 0.27 0.28 0.29 0.30 0.36 0.40 0.41
0.20 0.21 0.21 0.22 0.23 0.23 0.23 0.22 0.22 0.23 0.25 0.25 0.24 0.24 0.20 0.18 0.18 0.19 0.20 0.23 0.21 0.23 0.23 0.23 0.22 0.20 0.21 0.22 0.23 0.24 0.27 0.29 0.33 0.34 0.34 0.34 0.39 0.40
0.20 0.21 0.22 0.22 0.22 0.23 0.23 0.24 0.26 0.25 0.24 0.25 0.23 0.20 0.19 0.19 0.20 0.21 0.22 0.20 0.16 0.23 0.21 0.20 0.24 0.23 0.25 0.27 0.29 0.31 0.32 0.29 0.30 0.32 0.37 0.38 0.36 0.36
0.21 0.21 0.21 0.22 0.23 0.24 0.23 0.25 0.26 0.27 0.30 0.25 0.21 0.20 0.20 0.21 0.24 0.23 0.21 0.21 0.21 0.24 0.25 0.23 0.26 0.25 0.29 0.29 0.32 0.33 0.34 0.35 0.36 0.37 0.35 0.32 0.32 0.32
0.21 0.22 0.22 0.23 0.24 0.24 0.24 0.24 0.27 0.27 0.24 0.24 0.23 0.23 0.26 0.26 0.23 0.24 0.25 0.26 0.28 0.27 0.27 0.21 0.25 0.24 0.27 0.30 0.32 0.34 0.36 0.37 0.38 0.39 0.39 0.40 0.38 0.36
0.22 0.23 0.24 0.23 0.23 0.23 0.24 0.26 0.24 0.23 0.23 0.24 0.27 0.25 0.23 0.25 0.28 0.28 0.26 0.24 0.23 0.24 0.26 0.25 0.24 0.24 0.27 0.28 0.31 0.34 0.35 0.36 0.37 0.37 0.36 0.36 0.35 0.33
0.21 0.23 0.22 0.22 0.22 0.27 0.27 0.23 0.20 0.19 0.23 0.23 0.20 0.23 0.27 0.28 0.30 0.30 0.28 0.24 0.24 0.23 0.25 0.25 0.25 0.26 0.23 0.29 0.31 0.33 0.34 0.36 0.37 0.38 0.38 0.36 0.35 0.33
0.21 0.20 0.21 0.22 0.28 0.24 0.23 0.21 0.20 0.23 0.22 0.23 0.26 0.27 0.28 0.29 0.30 0.31 0.32 0.30 0.26 0.26 0.30 0.31 0.28 0.28 0.27 0.27 0.30 0.34 0.35 0.37 0.39 0.40 0.42 0.40 0.37 0.34
0.21 0.20 0.22 0.28 0.23 0.22 0.21 0.21 0.22 0.24 0.25 0.26 0.26 0.27 0.28 0.29 0.31 0.32 0.33 0.33 0.34 0.32 0.34 0.34 0.30 0.29 0.28 0.27 0.27 0.32 0.37 0.41 0.43 0.44 0.46 0.45 0.42 0.40
0.22 0.25 0.25 0.22 0.21 0.20 0.20 0.22 0.25 0.27 0.27 0.27 0.27 0.28 0.30 0.31 0.33 0.32 0.33 0.34 0.34 0.34 0.36 0.36 0.34 0.32 0.30 0.28 0.29 0.32 0.35 0.41 0.46 0.47 0.50 0.52 0.49 0.50
0.24 0.23 0.21 0.20 0.20 0.20 0.22 0.26 0.28 0.28 0.28 0.28 0.28 0.30 0.32 0.31 0.31 0.32 0.31 0.32 0.31 0.31 0.34 0.36 0.35 0.34 0.30 0.30 0.32 0.33 0.39 0.37 0.46 0.48 0.49 0.51 0.56 0.53
0.22 0.20 0.18 0.18 0.18 0.22 0.26 0.27 0.28 0.29 0.29 0.30 0.29 0.30 0.30 0.31 0.31 0.32 0.32 0.32 0.30 0.30 0.30 0.33 0.35 0.35 0.34 0.33 0.32 0.36 0.38 0.41 0.45 0.47 0.50 0.49 0.52 0.53
0.19 0.18 0.18 0.19 0.23 0.25 0.26 0.27 0.28 0.29 0.30 0.30 0.30 0.29 0.29 0.30 0.31 0.32 0.33 0.32 0.31 0.31 0.30 0.32 0.32 0.31 0.33 0.35 0.40 0.37 0.41 0.42 0.46 0.48 0.49 0.48 0.49 0.54
0.18 0.19 0.20 0.23 0.26 0.26 0.27 0.28 0.28 0.29 0.29 0.28 0.27 0.27 0.27 0.28 0.30 0.32 0.32 0.32 0.32 0.33 0.33 0.33 0.33 0.31 0.28 0.28 0.36 0.44 0.41 0.44 0.46 0.47 0.49 0.49 0.47 0.50
0.20 0.20 0.22 0.26 0.27 0.27 0.28 0.28 0.27 0.27 0.27 0.28 0.27 0.27 0.27 0.28 0.29 0.31 0.32 0.32 0.33 0.33 0.33 0.34 0.33 0.33 0.31 0.30 0.32 0.39 0.49 0.45 0.45 0.45 0.47 0.51 0.54 0.58
0.21 0.23 0.26 0.27 0.28 0.29 0.29 0.27 0.26 0.26 0.26 0.26 0.27 0.28 0.29 0.28 0.28 0.30 0.31 0.33 0.34 0.34 0.30 0.32 0.36 0.39 0.38 0.38 0.35 0.36 0.43 0.50 0.50 0.47 0.48 0.47 0.46 0.48
0.23 0.25 0.27 0.29 0.29 0.28 0.27 0.27 0.27 0.27 0.26 0.26 0.27 0.29 0.30 0.30 0.29 0.30 0.31 0.30 0.32 0.34 0.34 0.32 0.38 0.39 0.38 0.35 0.33 0.35 0.38 0.44 0.50 0.51 0.53 0.51 0.46 0.41
0.26 0.27 0.28 0.28 0.28 0.27 0.27 0.27 0.27 0.27 0.27 0.27 0.28 0.30 0.31 0.29 0.31 0.31 0.31 0.32 0.32 0.31 0.34 0.32 0.32 0.37 0.37 0.36 0.36 0.35 0.36 0.38 0.42 0.42 0.45 0.51 0.52 0.53
Wind_Speed
47 47 49 51 52 53 55 57 59 63 64 63 64 63 64 66 66 65 65 65 65 63 62 61 60 59 58 58 58 58 59 60 61 62 63 64 66 69
47 49 51 53 55 56 57 58 60 62 66 65 65 66 66 65 65 64 64 63 60 58 58 56 55 53 54 54 56 56 57 57 58 58 58 59 60 62
49 52 54 56 57 58 59 60 61 61 64 67 66 65 65 64 62 60 60 59 57 55 53 51 52 53 54 56 55 54 53 53 54 54 54 54 54 57
52 54 57 58 59 59 60 61 61 62 62 64 64 63 62 60 59 58 56 53 52 52 53 53 54 54 52 50 50 50 50 51 51 51 51 53 52 52
55 57 59 60 61 61 60 61 61 60 59 60 62 60 58 57 56 52 54 53 52 52 52 51 50 48 46 45 47 49 48 48 48 49 49 48 48 48
57 59 61 61 61 61 61 60 59 60 59 58 57 55 56 52 53 53 52 47 46 45 45 45 43 41 44 44 44 44 44 45 45 46 48 47 47 46
59 60 61 61 61 60 59 60 59 57 55 54 54 52 53 51 50 47 45 43 44 42 40 38 38 38 38 38 38 38 38 39 41 43 45 47 47 46
61 62 61 61 60 60 59 58 55 54 54 52 50 50 50 46 43 41 40 37 35 34 34 35 34 33 32 32 33 34 35 38 38 40 43 45 47 48
62 62 62 60 59 58 57 55 54 52 49 50 48 46 43 41 39 35 35 35 34 34 35 33 31 29 30 31 33 35 36 37 37 38 40 43 46 47
62 62 60 59 57 56 56 53 50 46 45 42 41 39 38 36 36 36 36 36 35 34 33 31 29 29 30 30 32 34 34 33 34 35 36 37 40 42
61 58 58 57 55 54 51 48 45 41 39 37 35 34 35 36 36 36 34 34 33 32 31 30 29 30 29 29 27 26 26 25 27 27 29 31 33 37
58 57 55 53 51 48 45 42 37 37 34 31 31 32 33 32 32 29 29 28 28 28 28 26 26 26 23 23 21 22 20 19 19 20 22 25 29 33
56 52 50 49 45 43 39 35 33 32 29 30 31 30 27 27 27 26 26 26 26 26 27 25 23 22 19 18 17 16 14 12 12 12 13 17 25 33
51 50 47 43 42 37 33 30 28 28 29 28 25 23 25 25 26 26 25 25 24 25 25 23 19 18 16 13 12 11 10 10 10 9 5 8 19 30
48 45 41 39 35 30 27 26 27 28 24 21 22 23 25 26 25 24 23 23 23 23 22 19 18 15 11 8 8 8 9 9 10 8 6 3 11 21
42 37 36 33 29 25 24 26 25 21 21 21 22 24 25 24 23 22 22 22 22 22 22 19 15 11 7 3 4 6 7 8 10 8 8 8 10 15
37 33 30 27 24 24 25 24 20 20 21 22 23 24 23 23 22 22 21 21 21 22 20 18 15 9 4 3 5 7 8 9 11 11 12 14 14 13
30 28 25 22 23 25 22 20 20 21 22 22 23 23 22 22 21 21 21 20 20 20 18 16 14 12 9 10 9 10 12 13 15 16 16 17 17 17
26 24 22 23 23 21 21 20 21 22 22 23 23 22 22 21 21 20 19 19 19 19 17 14 12 10 10 11 11 15 14 15 16 17 19 21 20 18
23 22 22 22 21 21 21 21 22 23 23 23 23 22 21 19 18 17 17 17 17 17 16 14 12 10 10 11 11 13 17 16 17 19 21 21 24 26
22 22 21 20 20 22 22 23 23 23 24 23 21 21 20 18 17 16 15 16 15 14 14 13 13 12 11 11 12 13 14 17 18 18 19 21 23 25
22 21 20 20 21 22 23 23 23 23 24 21 20 20 19 17 15 14 13 12 11 11 10 11 10 11 12 11 11 12 12 14 16 18 18 19 18 21
20 20 20 21 22 22 23 23 23 23 22 20 19 18 18 16 14 13 11 10 9 8 7 7 8 9 9 9 11 11 12 12 12 15 17 19 21 22
Wind_Direction
309 307 307 307 306 305 303 302 302 302 301 302 302 301 300 300 300 299 297 295 294 292 290 288 285 283 280 278 276 274 272 269 266 264 262 260 256 252
310 309 309 308 307 306 305 303 302 301 300 302 302 302 301 301 300 299 298 296 294 292 290 289 286 283 281 279 277 274 273 270 267 265 263 259 256 252
311 311 310 310 309 307 306 304 303 302 301 302 302 302 301 301 300 299 299 297 294 293 291 289 288 285 283 281 278 275 272 269 266 264 261 259 257 252
312 312 312 311 310 308 307 305 304 303 302 302 303 303 302 302 301 300 298 297 295 292 290 290 288 286 283 280 278 276 273 270 267 264 261 257 255 253
313 313 313 312 310 309 308 306 305 305 304 303 303 303 303 304 302 301 300 298 296 293 291 291 289 286 283 281 280 278 274 270 267 263 259 255 253 250
314 314 314 312 311 310 309 308 307 306 305 304 304 304 305 305 303 303 302 301 299 297 294 292 290 287 286 285 282 279 275 271 267 262 257 253 251 249
314 315 314 313 312 311 310 309 308 307 306 305 304 305 306 307 306 306 304 303 301 299 297 295 293 291 289 287 285 281 278 273 268 264 257 251 249 247
315 315 314 314 312 311 310 309 308 308 307 306 306 306 307 307 307 307 307 309 308 306 304 300 298 294 292 291 288 284 282 279 272 265 258 252 249 246
315 315 314 314 312 311 310 309 308 307 306 306 306 306 307 308 309 310 309 309 308 308 307 301 300 295 295 294 291 289 285 280 274 267 262 254 248 244
316 315 314 314 313 312 311 311 310 309 309 308 307 308 308 310 309 309 308 307 306 307 307 302 300 297 300 298 297 296 290 283 276 268 262 255 246 237
317 317 316 315 314 314 313 313 313 313 312 312 311 311 311 312 311 311 310 309 308 308 308 301 301 299 299 301 302 302 299 290 281 275 262 251 240 228
318 318 317 317 317 316 316 316 316 317 317 317 317 317 316 316 317 317 317 316 316 314 316 309 305 306 304 303 306 310 309 303 294 278 267 247 229 216
320 320 320 319 319 320 319 319 319 321 322 321 321 322 324 325 326 325 322 320 319 317 321 319 313 310 305 306 314 319 321 324 323 306 275 240 219 207
322 322 322 322 322 323 323 323 325 326 325 326 329 332 333 334 333 332 329 327 324 320 320 322 320 317 311 309 319 334 338 343 346 342 321 229 208 204
323 323 324 325 326 327 328 330 329 329 331 335 336 337 337 336 336 338 340 339 337 336 334 327 323 321 315 304 324 342 354 9 5 13 31 140 179 188
325 326 328 329 331 333 334 333 334 338 338 339 339 339 340 342 342 344 344 346 347 347 346 344 338 333 329 321 344 357 10 16 16 32 56 83 135 165
328 329 332 334 337 337 337 338 342 342 342 342 342 342 345 347 347 348 348 349 351 353 357 2 7 10 36 84 57 44 34 45 55 69 74 91 106 130
331 333 335 338 337 338 341 343 344 343 343 343 343 344 345 347 350 351 353 356 358 3 7 15 27 45 70 85 79 64 71 68 77 77 83 89 97 104
334 336 338 338 339 342 343 342 342 342 342 342 342 343 344 346 349 354 357 1 7 10 16 24 35 56 79 86 84 68 82 77 84 83 85 88 91 100
338 338 338 340 342 343 343 342 340 339 339 339 340 341 343 345 348 352 358 2 7 15 23 35 45 65 87 94 95 87 77 86 88 87 90 91 96 97
339 339 340 341 342 341 341 339 338 338 337 336 338 341 342 344 346 349 353 359 8 18 30 42 52 68 87 99 99 97 92 86 91 95 99 98 99 102
339 340 341 341 340 340 340 340 340 340 341 339 339 340 343 344 346 348 352 357 5 16 33 46 62 76 85 94 100 102 106 101 98 97 100 105 110 109
341 341 341 340 341 341 341 341 340 341 343 344 344 344 345 346 347 349 353 359 6 16 34 51 66 80 94 97 100 104 106 113 113 108 110 111 111 112